Regional Weather Roundup
Issued by NWS Melbourne, FL

Current Version | Previous Version | Text Only | Print | Product List | Glossary On
Versions: 1 2 3 4 5 6 7 8 9 10 11 12 13 14 15 16 17 18 19 20 21 22 23 24 25 26 27
541
ASUS42 KMLB 191307
RWRMLB
HOURLY WEATHER ROUNDUP AROUND FLORIDA
NATIONAL WEATHER SERVICE OFFICE MELBOURNE FL
800 AM EST FRI JAN 19 2018

CITY           SKY/WX    TMP DP  RH WIND       PRES   REMARKS
MELBOURNE      FAIR      45  32  60 N6        30.33R
FORT PIERCE    FAIR      47  42  83 NW5       30.31R
ORLANDO INTL   MOCLDY    40  27  59 N7        30.34R WCI  35
DAYTONA BEACH  FAIR      38  31  76 CALM      30.36R
VERO BEACH     FAIR      46  41  82 NW6       30.32R
$$
...ELSEWHERE ACROSS CENTRAL FLORIDA...

CITY           SKY/WX    TMP DP  RH WIND       PRES   REMARKS
PATRICK AFB    FAIR      47  35  62 N10       30.33
KSC            FAIR      42  35  78 N5        30.33R WCI  39
CAPE CANAVERAL FAIR      46  36  69 NW7       30.32R
TITUSVILLE     CLEAR     43  27  52 N6        30.33R WCI  39
ORLANDO EXEC   FAIR      42  25  50 VRB3      30.34R
LEESBURG       FAIR      37  32  82 CALM      30.36R
SANFORD        FAIR      41  29  62 N6        30.34R WCI  37
DELAND         FAIR      32  30  93 CALM      30.34S
NEW SMYRNA BCH CLEAR    N/A N/A N/A NW3       30.36R
ORMOND BEACH   CLEAR     32  30  93 W3        30.36S
WINTER HAVEN   FAIR      41  31  67 NE7       30.36R WCI  36
KISSIMMEE      FAIR      41  27  57 N5        30.35S WCI  38
OKEECHOBEE     FAIR      41  32  70 N8        30.32R WCI  36
TAMPA          MOCLDY    42  25  50 NE8       30.35R WCI  37
$$
...NORTHERN FLORIDA...

CITY           SKY/WX    TMP DP  RH WIND       PRES   REMARKS
PALM COAST     CLEAR     32  28  86 CALM      30.35S
ST AUGUSTINE   FAIR      31  27  85 NW5       30.37S WCI  26
OCALA          FAIR      24  22  91 CALM      30.36R
GAINESVILLE    FAIR      24  21  88 CALM      30.38S
JACKSONVILLE   FAIR      27  24  89 CALM      30.35S
TALLAHASSEE    FAIR      23  19  85 CALM      30.37R FOG
$$
...ALONG THE SOUTHEAST COAST TO THE KEYS...

CITY           SKY/WX    TMP DP  RH WIND       PRES   REMARKS
STUART         PTCLDY    50  46  87 NW9       30.31R
WEST PALM BCH  MOCLDY    51  45  79 NW8       30.29R
MIAMI          MOCLDY    50  47  89 N5        30.28R
KEY WEST       FAIR      57  54  89 NE14      30.25R
$$
...MARINE REPORTS...

STATION/POSITION TIME  TEMP    WIND        PRES    WAVE   SWELL
                       AIR SEA DIR/SP/G            HT/PER HT/PER
                 (UTC) (F)     (DEG/KT/KT) (MB)    (FT/S) (FT/S)
ST AUGUSTINE FP  1300   36 48  290/  8/  9 1028.2R
20NM E CAPE CANA 1250   59 70  350/ 14/ 19 1026.3R   5/10   3/10
TRIDENT PIER     1248   45 60  330/  7/  9 1028.6R
4NM E PORT CANAV 1253      59                N/A     3/11   2/11
6NM NE FPR INLET 1230      63                N/A     5/ 5   2/11
SETTLEMENT PT GB 1300   62      50/  9/ 12 1025.5R
$$




USA.gov is the U.S. government's official web portal to all federal, state and local government web resources and services.